Regional Weather Roundup
Issued by NWS Little Rock, AR

Home | Current Version | Previous Version | Graphics & Text | Print | Product List | Glossary On
Versions: 1 2 3 4 5 6 7 8 9 10 11 12 13 14 15 16 17 18 19 20 21 22 23 24 25 26 27 28 29 30 31
000
ASUS44 KLZK 261105
RWRLZK

WEATHER ROUNDUP FOR ARKANSAS
NATIONAL WEATHER SERVICE LITTLE ROCK AR
600 AM CDT FRI MAY 26 2017

NOTE: "FAIR" INDICATES FEW OR NO CLOUDS BELOW 12,000 FEET WITH NO
SIGNIFICANT WEATHER AND/OR OBSTRUCTIONS TO VISIBILITY.

ARZ001-003-010-029-261200-
NORTHWEST ARKANSAS

CITY           SKY/WX    TMP DP  RH WIND       PRES   REMARKS
FAYETTEVILLE   PTCLDY    70  62  76 SW13G20   29.69R
FORT SMITH     PTCLDY    66  60  81 NE3       29.68R
HARRISON       CLOUDY    63  60  90 E8        29.73R
BENTONVILLE    PTCLDY    64  59  82 CALM      29.70F
ROGERS         PTCLDY    65  60  84 SE8       29.69R
SILOAM SPGS    PTCLDY    70  57  64 CALM      29.68R
HIGHFILL       PTCLDY    64  60  87 SE8       29.68F
SPRINGDALE     PTCLDY    72  61  68 S5G139    29.72
$$

ARZ004-005-016-261200-
NORTH CENTRAL ARKANSAS

CITY           SKY/WX    TMP DP  RH WIND       PRES   REMARKS
BATESVILLE     MOCLDY    66  61  82 SE9       29.80S
FLIPPIN        MOCLDY    64  55  72 E3        29.72S
MTN HOME       CLOUDY    65  59  81 S9        29.75S
$$

ARZ040-041-261200-
WEST CENTRAL ARKANSAS

CITY           SKY/WX    TMP DP  RH WIND       PRES   REMARKS
MENA           CLEAR     72  63  73 SW8G21    29.77R
MOUNT IDA      PTCLDY    71  58  63 VRB5      29.74S
$$

ARZ009-017-025-026-028-261200-
NORTHEAST ARKANSAS

CITY           SKY/WX    TMP DP  RH WIND       PRES   REMARKS
JONESBORO      CLEAR     64  59  83 S7        29.84R
NEWPORT        CLEAR     66  62  87 S13       29.82R
WALNUT RIDGE   CLEAR     64  57  77 S9        29.82R
BLYTHEVILLE    CLEAR     65  58  78 S10       29.86R
$$

ARZ022-023-033-042-044-261200-
CENTRAL ARKANSAS

CITY           SKY/WX    TMP DP  RH WIND       PRES   REMARKS
LITTLE ROCK    MOCLDY    67  64  90 S15G22    29.80R
N LITTLE ROCK    N/A     67  63  86 S9G23     29.79S
JACKSONVILLE   CLOUDY    68  64  86 S10       29.79R
CONWAY           N/A     70  63  78 S12       29.76S
SEARCY         MOCLDY    67  65  93 S9        29.82S
HOT SPRINGS    MOCLDY    68  63  84 S7        29.80R
RUSSELLVILLE   PTCLDY    67  59  75 VRB3      29.74R
CLINTON        FAIR      63  61  94 CALM      29.77S
$$

ARZ036-261200-
EAST ARKANSAS

CITY           SKY/WX    TMP DP  RH WIND       PRES   REMARKS
WEST MEMPHIS   PTCLDY    65  61  87 S10       29.86R
$$

ARZ050-053-066-070-073-261200-
SOUTHWEST ARKANSAS

CITY           SKY/WX    TMP DP  RH WIND       PRES   REMARKS
ARKADELPHIA    FAIR      64  63  96 MISG      29.81S
CAMDEN         PTCLDY    66  61  82 S6        29.84R
TEXARKANA      PTCLDY    66  64  93 S14       29.78S
EL DORADO      PTCLDY    65  63  93 S9        29.85R
DE QUEEN       CLEAR     67  62  84 E5        29.75R
$$

ARZ056-057-069-261200-
SOUTHEAST ARKANSAS

CITY           SKY/WX    TMP DP  RH WIND       PRES   REMARKS
PINE BLUFF     PTCLDY    67  63  87 S13       29.84R
STUTTGART      CLEAR     70  54  56 S16       29.84S
MONTICELLO     CLEAR     66  63  90 S7        29.86S

$$






USA.gov is the U.S. government's official web portal to all federal, state and local government web resources and services.